Date String (YYYY-MM-DD hh:mm:ss) UTC,Instrument flags,Ambient pressure (hPa),Sample flow (lpm),Bypass flow (lpm),Sample temperature (°C),Ambient temperature (°C),ASC tube jacket temperature (°C),LED temperature (°C),Box temperature (°C),Sample RH (%),Span deviation,Mass concentration (μg/m³),Mass concentration (μg/m³),Mass concentration (μg/m³)
DateTimeUTC,F1_M11,P_M11,Q1_M11,Q2_M11,T1_M11,T2_M11,T3_M11,T4_M11,T5_M11,U1_M11,ZSPAN_M11,X0_M11,X2_M11,X1_M11
2022-09-13 18:00:00,,0825.9,5.00,0.00,29.9,28.3,00.0,38.6,31.7,15.2,0001.9,0031.65,0018.20,0017.06
2022-09-13 18:01:00,,0825.9,5.00,0.00,29.9,28.4,00.0,38.6,31.7,15.3,0002.0,0031.32,0018.08,0016.95
2022-09-13 18:02:00,,0825.9,5.00,0.00,29.9,28.6,00.0,38.6,31.8,15.5,0001.9,0030.63,0017.98,0016.89
2022-09-13 18:03:00,,0826.0,5.00,0.00,30.0,28.7,00.0,38.6,31.9,15.9,0001.7,0029.91,0017.87,0016.78
2022-09-13 18:04:00,,0826.1,5.00,0.00,30.0,28.8,00.0,38.7,31.9,16.1,0001.3,0029.39,0017.69,0016.64
2022-09-13 18:05:00,,0826.2,5.00,0.00,30.1,28.9,00.0,38.7,32.0,16.0,0001.3,0028.57,0017.51,0016.48
2022-09-13 18:06:00,,0826.0,4.99,0.00,30.1,29.0,00.0,38.7,32.0,15.5,0001.4,0028.07,0017.37,0016.35
2022-09-13 18:07:00,,0825.8,5.00,0.00,30.1,28.6,00.0,38.7,32.0,15.4,0001.4,0027.75,0017.20,0016.25
2022-09-13 18:08:00,,0825.7,5.01,0.00,30.1,27.3,00.0,38.7,31.9,15.4,0001.7,0027.41,0017.11,0016.18
2022-09-13 18:09:00,,0825.7,5.00,0.00,30.0,26.7,00.0,38.6,31.9,15.4,0002.2,0025.96,0017.01,0016.08
2022-09-13 18:10:00,,0825.7,5.00,0.00,30.0,26.8,00.0,38.6,31.8,15.3,0002.0,0025.86,0016.91,0016.01
2022-09-13 18:11:00,,0825.7,5.01,0.00,29.9,27.1,00.0,38.6,31.6,15.5,0002.0,0025.20,0016.83,0015.91
2022-09-13 18:12:00,,0825.6,5.00,0.00,29.9,27.4,00.0,38.6,31.6,15.8,0002.3,0024.96,0016.70,0015.77
2022-09-13 18:13:00,,0825.6,4.99,0.00,29.9,27.7,00.0,38.6,31.6,16.3,0002.3,0025.24,0016.65,0015.67
2022-09-13 18:14:00,,0825.6,5.01,0.00,29.9,28.0,00.0,38.6,31.7,15.9,0002.8,0025.18,0016.64,0015.64
2022-09-13 18:15:00,,0825.6,5.00,0.00,29.9,28.2,00.0,38.6,31.7,15.9,0002.7,0024.84,0016.69,0015.67
2022-09-13 18:16:00,,0825.6,4.99,0.00,29.9,28.4,00.0,38.6,31.8,16.1,0002.7,0025.09,0016.73,0015.69
2022-09-13 18:17:00,,0825.6,4.99,0.00,29.9,28.6,00.0,38.6,31.8,16.2,0002.5,0025.91,0016.73,0015.67
2022-09-13 18:18:00,,0825.6,5.00,0.00,30.0,28.7,00.0,38.6,31.8,16.3,0002.4,0025.34,0016.74,0015.66
2022-09-13 18:19:00,,0825.6,5.00,0.00,30.0,28.8,00.0,38.6,31.9,16.4,0002.2,0025.35,0016.78,0015.66
2022-09-13 18:20:00,,0825.6,4.99,0.00,30.0,28.9,00.0,38.6,31.9,16.8,0001.9,0025.46,0016.84,0015.72
2022-09-13 18:21:00,,0825.6,5.00,0.00,30.1,29.0,00.0,38.7,32.0,17.0,0001.9,0025.16,0016.86,0015.76
2022-09-13 18:22:00,,0825.6,5.01,0.00,30.1,29.0,00.0,38.7,32.0,16.8,0001.9,0024.56,0016.86,0015.77
2022-09-13 18:23:00,,0825.6,5.00,0.00,30.1,27.8,00.0,38.7,32.0,16.7,0001.9,0024.35,0016.83,0015.77
2022-09-13 18:24:00,,0825.6,5.01,0.00,30.0,26.7,00.0,38.6,31.8,16.8,0002.1,0024.29,0016.82,0015.78
2022-09-13 18:25:00,,0825.5,5.00,0.00,30.0,26.6,00.0,38.6,31.8,16.5,0001.8,0024.75,0016.83,0015.79
2022-09-13 18:26:00,,0825.5,5.00,0.00,29.9,26.8,00.0,38.6,31.6,17.0,0001.5,0025.10,0016.81,0015.80
2022-09-13 18:27:00,,0825.5,5.00,0.00,29.9,27.2,00.0,38.6,31.5,17.2,0001.5,0025.45,0016.86,0015.82
2022-09-13 18:28:00,,0825.5,5.01,0.00,29.8,27.5,00.0,38.6,31.6,16.7,0001.4,0026.00,0016.97,0015.91
2022-09-13 18:29:00,,0825.5,4.98,0.00,29.8,27.8,00.0,38.5,31.6,17.0,0001.8,0026.32,0017.05,0015.96
2022-09-13 18:30:00,,0825.5,5.01,0.00,29.8,28.1,00.0,38.5,31.6,16.9,0001.6,0026.32,0017.06,0015.99
2022-09-13 18:31:00,,0825.5,4.99,0.00,29.9,28.3,00.0,38.5,31.7,16.6,0001.7,0026.79,0017.07,0015.97
2022-09-13 18:32:00,,0825.5,5.00,0.00,29.9,28.5,00.0,38.6,31.7,16.5,0001.9,0026.96,0017.07,0015.96
2022-09-13 18:33:00,,0825.5,5.00,0.00,29.9,28.6,00.0,38.6,31.8,16.8,0001.7,0027.21,0017.09,0015.98
2022-09-13 18:34:00,,0825.5,4.99,0.00,29.9,28.7,00.0,38.6,31.8,16.2,0001.7,0027.21,0017.13,0016.02
2022-09-13 18:35:00,,0825.4,4.99,0.00,30.0,28.8,00.0,38.6,31.9,16.2,0001.9,0027.13,0017.15,0016.03
2022-09-13 18:36:00,,0825.4,5.00,0.00,30.0,28.9,00.0,38.6,31.9,16.7,0002.2,0026.70,0017.23,0016.11
2022-09-13 18:37:00,,0825.4,4.99,0.00,30.0,29.0,00.0,38.7,32.0,16.5,0002.6,0026.66,0017.31,0016.19
2022-09-13 18:38:00,,0825.4,5.00,0.00,30.1,29.0,00.0,38.7,32.0,16.4,0002.3,0026.35,0017.38,0016.29
2022-09-13 18:39:00,,0825.4,5.01,0.00,30.1,27.9,00.0,38.7,32.0,16.1,0002.0,0025.43,0017.40,0016.34
2022-09-13 18:40:00,,0825.4,5.00,0.00,30.0,26.7,00.0,38.7,31.8,16.2,0001.9,0025.28,0017.43,0016.37
2022-09-13 18:41:00,,0825.3,5.01,0.00,30.0,26.6,00.0,38.6,31.7,16.3,0002.2,0025.24,0017.44,0016.39
2022-09-13 18:42:00,,0825.4,5.00,0.00,29.9,26.9,00.0,38.6,31.6,15.3,0001.9,0024.71,0017.41,0016.39
2022-09-13 18:43:00,,0825.4,5.00,0.00,29.9,27.3,00.0,38.6,31.6,15.1,0001.8,0024.26,0017.28,0016.31
2022-09-13 18:44:00,,0825.4,4.99,0.00,29.8,27.6,00.0,38.6,31.6,15.0,0002.0,0023.79,0017.14,0016.21
2022-09-13 18:45:00,,0825.3,5.01,0.00,29.8,27.8,00.0,38.6,31.6,14.7,0001.9,0023.97,0017.05,0016.09
2022-09-13 18:46:00,,0825.3,4.99,0.00,29.8,28.1,00.0,38.6,31.7,14.8,0001.7,0023.72,0016.89,0015.95
2022-09-13 18:47:00,,0825.3,5.01,0.00,29.9,28.3,00.0,38.6,31.7,14.6,0001.6,0023.47,0016.69,0015.78
2022-09-13 18:48:00,,0825.3,5.00,0.00,29.9,28.5,00.0,38.6,31.8,14.1,0001.6,0023.55,0016.49,0015.56
2022-09-13 18:49:00,,0825.3,5.00,0.00,29.9,28.6,00.0,38.6,31.8,14.3,0001.6,0023.27,0016.24,0015.30
2022-09-13 18:50:00,,0825.3,4.99,0.00,29.9,28.7,00.0,38.6,31.8,14.2,0002.2,0022.72,0015.97,0015.06
2022-09-13 18:51:00,,0825.3,4.99,0.00,30.0,28.8,00.0,38.6,31.9,13.9,0002.2,0022.28,0015.75,0014.86
2022-09-13 18:52:00,,0825.3,4.99,0.00,30.0,28.9,00.0,38.7,31.9,14.4,0002.1,0022.23,0015.63,0014.71
2022-09-13 18:53:00,,0825.3,5.01,0.00,30.0,28.9,00.0,38.7,32.0,14.8,0002.7,0022.03,0015.54,0014.61
2022-09-13 18:54:00,,0825.3,4.99,0.00,30.1,27.8,00.0,38.7,31.9,14.7,0002.6,0022.03,0015.54,0014.60
2022-09-13 18:55:00,,0825.3,5.00,0.00,30.0,26.7,00.0,38.6,31.8,14.9,0002.3,0021.95,0015.52,0014.57
2022-09-13 18:56:00,,0825.2,5.00,0.00,30.0,26.8,00.0,38.6,31.7,15.6,0002.4,0021.99,0015.53,0014.57
2022-09-13 18:57:00,,0825.2,5.00,0.00,29.9,27.0,00.0,38.6,31.6,15.8,0002.2,0022.58,0015.64,0014.66
2022-09-13 18:58:00,,0825.2,5.01,0.00,29.9,27.4,00.0,38.5,31.5,15.2,0002.0,0022.81,0015.69,0014.71
2022-09-13 18:59:00,,0825.2,5.00,0.00,29.8,27.7,00.0,38.5,31.6,15.3,0001.8,0022.51,0015.73,0014.78
